Regional Weather Roundup
Issued by NWS Green Bay, WI

Home | Current Version | Previous Version | Text Only | Print | Product List | Glossary On
Versions: 1 2 3 4 5 6 7 8 9 10 11 12 13 14 15 16 17 18 19 20 21 22 23 24 25 26 27 28 29 30 31 32 33 34 35 36 37 38 39 40 41 42 43 44 45 46 47 48 49 50
000
ASUS43 KGRB 211311
RWRGRB

NORTH-CENTRAL AND NORTHEAST WISCONSIN REGIONAL WEATHER ROUNDUP
NATIONAL WEATHER SERVICE GREEN BAY WI
700 AM CST TUE NOV 21 2017

WIZ005-009-010>012-018-019-211400-
NORTH CENTRAL WISCONSIN

CITY           SKY/WX    TMP DP  RH WIND       PRES   REMARKS
IRONWOOD       FLURRIES  25  16  68 NW22G29   29.60R
MANITOWISH WTR CLOUDY    25  15  67 NW18G32   29.57R
ARBOR VITAE    CLOUDY    29  19  65 NW14G23   29.56R
EAGLE RIVER    CLOUDY    27  15  60 NW21G33   29.54R
LAND O LAKES   FLURRIES  27  17  65 W16G30    29.54R
RHINELANDER    CLOUDY    29  16  58 NW15G31   29.56R
PHILLIPS       CLOUDY    27  15  61 NW9G24    29.60R
ANTIGO         MOCLDY    31  19  62 NW18G28   29.54R
TOMAHAWK       CLOUDY    29  17  59 W14G20    29.58R
MERRILL        CLOUDY    32  20  60 NW13G24   29.57R
$$

WIZ013-073-211400-
NORTHEAST WISCONSIN

CITY           SKY/WX    TMP DP  RH WIND       PRES   REMARKS
IRON MOUNTAIN  CLOUDY    34  16  47 NW16G26   29.47R
MARINETTE      CLEAR     38  20  48 NW10G18   29.50R
OCONTO         CLEAR     37  22  55 W14G29    29.52R
$$

WIZ017-030-035>037-045-211400-
CENTRAL WISCONSIN

CITY           SKY/WX    TMP DP  RH WIND       PRES   REMARKS
MEDFORD        CLOUDY    28  18  64 W20G33    29.61R
WAUSAU         PTCLDY    31  20  63 W17G31    29.56R
MOSINEE        PTCLDY    32  21  64 W18G30    29.58R
MARSHFIELD     CLOUDY    31  19  61 W25G38    29.61R
WISC RAPIDS    CLEAR     33  20  58 NW16G25   29.63R
STEVENS POINT  PTCLDY    31  18  58 W12G28    29.60R
WAUPACA        MOCLDY    38  20  48 W20G33    29.59R
SHAWANO        CLEAR     37  23  55 W14G23    29.54R
CLINTONVILLE   NOT AVBL
WAUTOMA        MOCLDY    37  15  40 W20G30    29.62R
$$

WIZ038-039-048-051-211400-
FOX VALLEY

CITY           SKY/WX    TMP DP  RH WIND       PRES   REMARKS
NWS GREEN BAY  PTCLDY    38  25  59 W17G28    29.54R
APPLETON       PTCLDY    37  18  44 W16G31    29.54R
OSHKOSH        CLOUDY    39  18  42 W15G30    29.56R
FOND DU LAC    MOCLDY    39  23  52 W10       29.58R
$$

WIZ022-050-052-211400-
EAST CENTRAL WISCONSIN

CITY           SKY/WX    TMP DP  RH WIND       PRES   REMARKS
EPHRAIM        FAIR      38  23  54 W14G28    29.47R
WASHINGTON ISL FAIR      38  23  53 W18G32    29.46R
STURGEON BAY   CLEAR     39  25  57 W18G26    29.50R
MANITOWOC      CLOUDY    41  25  53 W8        29.56R
SHEBOYGAN      CLOUDY    43  24  47 W12G22    29.56R
$$

LMZ563-521-522-541>543-211400-
LAKESHORE

STATION/POSITION TIME  TEMP    WIND        PRES    VSBY  WAVE
                       AIR SEA DIR/SP/G                  HT/PER
                 (UTC) (F)     (DEG/KT/KT) (MB)    (MI)  (FT/S)
SHEBOYGAN LKSHOR 1300   45     270/ 12/ 15 1001.0R
KEWAUNEE LKSHORE 1242   42     280/  6/ 15  998.7R
NORTHPORT PIER   1247   41     280/ 12/ 28  997.6R
N MID LAKE BUOY  1250   43 48  270/ 25/ 31  997.2R         9/ 8
SISTER BAY LKSHO 1305   41     310/ 21/ 24   N/A
MENOMINEE LKSHOR 1242   39     270/ 12/ 22  998.4R
$$



USA.gov is the U.S. government's official web portal to all federal, state and local government web resources and services.